Flag for U.S.A. Weather past 2 weeks in Chattanooga, Tennessee, U.S.A.

Now
76 °F

Passing clouds.


Feels Like: 76 °F
Forecast: 75 / 92 °F
Wind: 3 mph from North

Location: Lovell Field

Current Time: Jul 29, 2015 at 8:01:05 AM

Latest Report: Jul 29, 2015 at 6:53 AM


Visibility: 7 mi

Pressure: 29.98 "Hg

Humidity: 91%

Dew point: 73 °F

Location of ChattanoogaLocation

Historic Weather in Chattanooga — Graph

°F

Chattanooga temperature yesterday

Maximum temperature yesterday: 92 °F (at 2:53 PM)
Minimum temperature yesterday: 76 °F (at 6:53 AM)
Average temperature yesterday: 83 °F

Past Weeks' High & Low Weather Summary

 TemperatureHumidityPressure
High95 °F (Jul 20, 4:53 PM)94% (Jul 18, 5:53 AM)30.04 "Hg (Jul 18, 5:53 AM)
Low69 °F (Jul 16, 6:53 AM)37% (Jul 16, 5:53 PM)29.69 "Hg (Jul 14, 4:53 PM)
Average81 °F73%29.93 "Hg
* Reported Jul 14 6:53 AM — Jul 29 6:53 AM, Chattanooga, Weather by CustomWeather, © 2015

Note: Actual official high and low records may vary slightly from our data, if they occured in-between our weather recording intervals... More about our weather records

Advertising

Chattanooga weather history for previous 24 hours

 ConditionsComfort  
Time TempWeatherWind HumidityBarometerVisibility
6:53 AM
Wed, Jul 29
76 °FPassing clouds.3 mph91%29.98 "Hg7 mi
5:53 AM75 °FFog.3 mph90%29.96 "Hg6 mi
4:53 AM76 °FClear.No wind91%29.96 "Hg8 mi
3:53 AM77 °FClear.3 mph88%29.96 "Hg10 mi
2:53 AM77 °FClear.5 mph90%29.95 "Hg9 mi
1:53 AM78 °FClear.No wind90%29.97 "Hg9 mi
12:53 AM79 °FClear.No wind88%29.99 "Hg10 mi
11:53 PM
Tue, Jul 28
80 °FPassing clouds.3 mph85%29.98 "Hg10 mi
10:53 PM80 °FPartly cloudy.No wind85%29.99 "Hg10 mi
9:53 PM81 °FPassing clouds.5 mph85%29.96 "Hg10 mi
8:53 PM83 °FBroken clouds.No wind77%29.95 "Hg10 mi
7:53 PM85 °FBroken clouds.3 mph70%29.93 "Hg10 mi
6:53 PM87 °FBroken clouds.6 mph63%29.94 "Hg10 mi
5:53 PM87 °FBroken clouds.5 mph61%29.95 "Hg10 mi
4:53 PM80 °FBroken clouds.6 mph81%29.96 "Hg10 mi
3:53 PM84 °FThunderstorms. Broken clouds.10 mph63%29.98 "Hg10 mi
2:53 PM92 °FBroken clouds.6 mph56%29.95 "Hg10 mi
1:53 PM91 °FBroken clouds.6 mph56%29.98 "Hg10 mi
12:53 PM91 °FBroken clouds.3 mph54%29.98 "Hg10 mi
11:53 AM90 °FScattered clouds.No wind59%30.00 "Hg10 mi
10:53 AM86 °FScattered clouds.No wind67%30.00 "Hg10 mi
9:53 AM82 °FScattered clouds.No wind77%30.01 "Hg9 mi
8:53 AM80 °FScattered clouds.No wind79%30.00 "Hg8 mi
Weather by CustomWeather, © 2015

See weather overviewHow to use our weather pages